Location: Haliburton Scout Reserve
(45.0900°N, 78.3200°W)
Time: 09:45:08
(UTC-04:00)

PRISM - Visible Passes

Search period start: 29 September 2023 00:00
Search period end: 09 October 2023 00:00
Orbit: 528 x 551 km, 98.2° (Epoch: 28 September)

Date Brightness Start Highest point End Pass type
(mag) Time Alt. Az. Time Alt. Az. Time Alt. Az.
29 Sep ? 19:48:10 10° S 19:52:00 77° WSW 19:55:51 10° NNW visible
30 Sep ? 19:40:37 10° SSE 19:44:26 85° ENE 19:48:17 10° NNW visible
01 Oct ? 19:33:04 10° SSE 19:36:52 68° ENE 19:40:41 10° N visible
02 Oct ? 19:25:32 10° SSE 19:29:16 55° ENE 19:33:02 10° N visible
02 Oct ? 21:02:31 10° WSW 21:04:04 12° W 21:05:36 10° WNW visible
03 Oct ? 19:18:01 10° SE 19:21:40 44° ENE 19:25:20 10° N visible
03 Oct ? 20:54:07 10° SW 20:56:20 15° W 20:58:34 10° WNW visible
04 Oct ? 20:45:56 10° SW 20:48:37 18° W 20:51:18 10° NW visible
05 Oct ? 20:37:50 10° SSW 20:40:52 22° W 20:43:54 10° NW visible
06 Oct ? 20:29:49 10° SSW 20:33:06 27° W 20:36:24 10° NW visible
07 Oct ? 20:21:50 10° SSW 20:25:19 33° W 20:28:49 10° NNW visible
08 Oct ? 20:13:54 10° S 20:17:31 41° W 20:21:11 10° NNW visible
